Regional Weather Roundup
Issued by NWS

Home | Current Version | Previous Version | Text Only | Print | Product List | Glossary Off
Versions: 1 2 3 4 5 6 7 8 9 10 11 12 13 14 15 16 17 18 19 20 21 22 23 24 25 26 27 28 29 30 31 32 33 34 35 36 37 38 39 40 41 42 43 44 45 46 47 48 49 50

101
ASUS43 KMKX 292100
RWRWI

WISCONSIN REGIONAL WEATHER ROUNDUP
NATIONAL WEATHER SERVICE MILWAUKEE/SULLIVAN WI
400 PM CDT FRI JUL 29 2016

NOTE: "FAIR" INDICATES FEW OR NO CLOUDS BELOW 12,000 FEET WITH NO
SIGNIFICANT WEATHER AND/OR OBSTRUCTIONS TO VISIBILITY.

WIZ001-002-006>008-014>016-023>028-292200-
NORTHWEST WISCONSIN

CITY           SKY/WX    TMP DP  RH WIND       PRES   REMARKS
SUPERIOR ARPT  SUNNY     72  55  54 E10       30.08F
ASHLAND        SUNNY     73  57  57 NE10      30.08F
HAYWARD        MOSUNNY   75  54  47 NE10      30.06F
SIREN          NOT AVBL
CUMBERLAND     MOSUNNY   73  50  43 NE7       30.07F
RICE LAKE      MOSUNNY   76  53  45 N3        30.07S
CHETEK         SUNNY     76  53  44 CALM      30.05F
LADYSMITH      PTSUNNY   78  55  44 CALM      30.06F
EAU CLAIRE     NOT AVBL
MENOMONIE      SUNNY     81  46  29 E3        30.03F HX  80
NEW RICHMOND   SUNNY     76  49  38 NE7       30.05F
OSCEOLA        SUNNY     75  55  48 NE5       30.08F
$$

WIZ003>005-009-010-017-018-292200-
NORTH CENTRAL WISCONSIN

CITY           SKY/WX    TMP DP  RH WIND       PRES   REMARKS
MANITOWISH WTR SUNNY     75  52  45 CALM      30.07F
ARBOR VITAE    SUNNY     77  55  46 CALM      30.06F
WOODRUFF       SUNNY     77  55  46 CALM      30.06F
RHINELANDER    MOSUNNY   76  53  44 CALM      30.06F
EAGLE RIVER    MOSUNNY   76  51  42 SE3       30.06F
LAND O LAKES   PTSUNNY   77  51  39 NE6       30.08F
PHILLIPS       MOSUNNY   75  56  51 E3        30.05F
TOMAHAWK       PTSUNNY   74  57  54 NE3       30.05F
MEDFORD        CLOUDY    71  62  71 E3        30.05F
MERRILL        CLOUDY    73  59  62 SE7       30.05S
$$

WIZ029-030-035-036-043>047-292200-
CENTRAL WISCONSIN

CITY           SKY/WX    TMP DP  RH WIND       PRES   REMARKS
WAUSAU         CLOUDY    74  60  61 E8        30.02F
MOSINEE        NOT AVBL
MARSHFIELD     CLOUDY    75  59  57 E12       30.02F
STEVENS POINT  CLOUDY    70  61  73 E8        30.03F
WAUPACA        CLOUDY    74  65  74 CALM      30.02F
WAUTOMA        CLOUDY    71  65  81 NE8       30.01F
WISC RAPIDS    CLOUDY    72  61  68 E8        30.03F
CAMP DOUGLAS   NOT AVBL
$$

WIZ011>013-019>022-031-037>040-048>050-292200-
NORTHEAST WISCONSIN

CITY           SKY/WX    TMP DP  RH WIND       PRES   REMARKS
ANTIGO         CLOUDY    72  61  68 CALM      30.05F
SHAWANO        CLOUDY    78  59  53 E12       30.03S
OCONTO         CLOUDY    74  61  64 E8G17     30.02F
STURGEON BAY   SUNNY     76  56  49 NE13      30.03F
GREEN BAY      PTSUNNY   75  65  70 NE13      30.01F
MANITOWOC      NOT AVBL
APPLETON       CLOUDY    73  61  64 NE9       30.00F
CLINTONVILLE   CLOUDY    75  61  60 E8        30.01F
OSHKOSH        CLOUDY    74  62  66 NE12      29.99F
$$

WIZ032>034-041-042-053>061-292200-
SOUTHWEST WISCONSIN

CITY           SKY/WX    TMP DP  RH WIND       PRES   REMARKS
LA CROSSE      CLOUDY    76  64  66 NE6       29.98F
SPARTA         CLOUDY    74  65  73 E9        30.01F
VIROQUA        PTSUNNY   74  65  72 NE10      30.00F
BOSCOBEL       LGT RAIN  68  66  93 E3        29.98F
PRAIRIE DU CHI CLOUDY    69  63  82 N3        29.97F
PLATTEVILLE    CLOUDY    70  68  94 N10       29.97F
$$

WIZ056-057-062-063-064-067-068-292200-
SOUTH CENTRAL WISCONSIN

CITY           SKY/WX    TMP DP  RH WIND       PRES   REMARKS
REEDSBURG      CLOUDY    69  67  93 NE7       29.99F
BARABOO/DELLS  CLOUDY    68  64  85 NE8       30.00S
LONE ROCK      NOT AVBL
MINERAL POINT  CLOUDY    72  68  88 NE12      29.97F
MADISON        PTSUNNY   73  66  78 NE14      29.97F
MIDDLETON      CLOUDY    71  67  87 N10       29.98F
WATERTOWN      PTSUNNY   75  66  73 NE10G16   29.97S
MONROE         TSTM      70  68  94 N10       29.96S
JANESVILLE     CLOUDY    75  66  73 NE6       29.94S
$$

WIZ051-052-058>065-066-070>072-292200-
SOUTHEAST WISCONSIN

CITY           SKY/WX    TMP DP  RH WIND       PRES   REMARKS
MILWAUKEE      CLOUDY    73  65  75 NE12G21   29.98R
WAUKESHA       CLOUDY    72  63  73 NE10G18   29.99R
MILWAUKEE/TIMM PTSUNNY   72  63  73 NE14G20   29.99R
RACINE         CLOUDY    72  65  78 N9        29.98S
BURLINGTON     CLOUDY    73  64  73 E10G17    29.96S
KENOSHA        PTSUNNY   73  66  78 NE14      29.96S
FOND DU LAC    CLOUDY    76  64  66 NE9       29.99F
SHEBOYGAN      MOSUNNY   72  62  71 NE17      30.00S
WEST BEND      MOSUNNY   72  63  73 NE9G17    29.98F
JUNEAU         MOSUNNY   71  65  82 N9        30.00F
$$

LSZ147-162-292200-
LAKE SUPERIOR

STATION/POSITION TIME  TEMP    WIND        PRES    WAVE
                       AIR SEA DIR/SP/G            HT/PER
                 (UTC) (F)     (DEG/KT/KT) (MB)    (FT/S)
W MID LAKE BUOY  1950   63 62   20/  6/  6 1019.0F   0
DEVILS ISLAND    2000   64      20/  7/  8 1019.4F
PORT WING        2000   63      30/ 11/ 11 1019.3F
SAXON HARBOR     2000   67      30/  8/ 10 1018.6F
$$

LMZ867-665-643>646-292200-
LAKE MICHIGAN

STATION/POSITION TIME  TEMP    WIND        PRES    WAVE
                       AIR SEA DIR/SP/G            HT/PER
                 (UTC) (F)     (DEG/KT/KT) (MB)    (FT/S)
CHAMBERS ISLAND  2000   71      30/ 12/ 15 1017.3F
N MID LAKE BUOY  1950   69 70   50/ 12/ 14 1017.1F   1/ 3
NORTHPORT PIER   2000   70      70/ 11/ 14 1017.6F
SISTER BAY       2036   80     110/ 10/ 16   N/A
ALGOMA LAKESHORE 2013           70/ 14/ 17   N/A
KEWAUNEE LAKESHO 2000   71      20/  4/  8 1016.5F
SHEBOYGAN LAKESH 2000   64      20/ 13/ 14 1016.1F
PORT WASHINGTON  2030   70      40/ 11/ 14 1015.9F
ATWATER BUOY     2000   64 60   10/ 12/ 14 1016.5F
MILWAUKEE LAKESH 2010   68      20/ 17/ 20   N/A
S MID LAKE BUOY  1950   72 74   60/ 16/ 17 1012.9F   3/ 5
KENOSHA   LAKESH 2000   71      40/ 13/ 14 1013.9R
$$

TC  - TEMPERATURE IN CELSIUS
VSB - VISIBILITY IN STATUTE MILES
WCI - WIND CHILL INDEX
HX  - HEAT INDEX





USA.gov is the U.S. government's official web portal to all federal, state and local government web resources and services.